This is the latest recevied weather packets stored in our database for station/object KG5TTF. If no packets are shown the sender has not sent any weather packets the latest 10 day(s).
| Time | Temp. | Humidity | Pressure | Rain* | Wind** | Luminosity | Snow |
|---|---|---|---|---|---|---|---|
| 1788147693 | 62° F | 74% | 770.3 mmHg | 0 in | - | 0 W/m² | - |
| 1788147388 | 62° F | 74% | 770.4 mmHg | 0 in | - | 0 W/m² | - |
| 1788147083 | 61° F | 76% | 770.3 mmHg | 0 in | - | 0 W/m² | - |
| 1788146782 | 61° F | 78% | 770.5 mmHg | 0 in | - | 0 W/m² | - |
| 1788146478 | 61° F | 77% | 770.5 mmHg | 0 in | - | 0 W/m² | - |
| 1788146178 | 61° F | 77% | 770.4 mmHg | 0 in | - | 0 W/m² | - |
| 1788145877 | 61° F | 78% | 770.6 mmHg | 0 in | - | 0 W/m² | - |
| 1788145576 | 61° F | 80% | 770.4 mmHg | 0 in | - | 0 W/m² | - |
| 1788145276 | 61° F | 80% | 770.4 mmHg | 0 in | - | 0 W/m² | - |
| 1788144974 | 61° F | 79% | 770.3 mmHg | 0 in | - | 0 W/m² | - |
| 1788144670 | 61° F | 77% | 770.3 mmHg | 0 in | - | 0 W/m² | - |
| 1788144366 | 62° F | 75% | 770.2 mmHg | 0 in | - | 0 W/m² | - |
| 1788144064 | 62° F | 75% | 770.1 mmHg | 0 in | - | 0 W/m² | - |
| 1788143762 | 62° F | 75% | 770 mmHg | 0 in | - | 0 W/m² | - |
| 1788143457 | 62° F | 75% | 769.9 mmHg | 0 in | - | 0 W/m² | - |
| 1788143156 | 62° F | 75% | 769.8 mmHg | 0 in | - | 0 W/m² | - |
| 1788142852 | 62° F | 75% | 769.6 mmHg | 0 in | - | 0 W/m² | - |
| 1788142550 | 63° F | 76% | 769.6 mmHg | 0 in | - | 0 W/m² | - |
| 1788142247 | 62° F | 76% | 769.5 mmHg | 0 in | - | 0 W/m² | - |
| 1788141942 | 62° F | 74% | 769.6 mmHg | 0 in | - | 0 W/m² | - |
| 1788141637 | 62° F | 74% | 769.5 mmHg | 0 in | - | 0 W/m² | - |
| 1788141332 | 62° F | 75% | 769.4 mmHg | 0 in | - | 0 W/m² | - |
| 1788141027 | 61° F | 80% | 769.2 mmHg | 0 in | - | 0 W/m² | - |
| 1788140722 | 61° F | 81% | 769.4 mmHg | 0 in | - | 0 W/m² | - |
| 1788140418 | 61° F | 83% | 769.6 mmHg | 0 in | - | 1 W/m² | - |
* Rain latest hour (hover to see other rain measurements)
** Current wind speed in m/s (hover to see current wind gust speed)